Big Rapids, MI

4:37 AM EDT on August 19, 2019 (GMT -0400)
Roben-Hood

Weather History for KRQB - May, 2019

Change the Weather History Date:

Thursday, May 9, 2019

  Actual Average Record
Temperature  
Mean Temperature 55 °F -  
Max Temperature 67 °F 65 °F 85 °F (1979)
Min Temperature 43 °F 41 °F 24 °F (2017)
Degree Days  
Heating Degree Days 10    
Growing Degree Days 5 (Base 50)    
Moisture  
Dew Point 47 °F    
Average Humidity 82    
Maximum Humidity 96    
Minimum Humidity 44    
Precipitation  
Precipitation 0.88 in - - ()
Sea Level Pressure  
Sea Level Pressure 29.75 in    
Wind  
Wind Speed 11 mph (South)    
Max Wind Speed 20 mph    
Max Gust Speed 29 mph    
Visibility 8 miles    
Events Rain    
Averages and records for this station are not official NWS values.
T = Trace of Precipitation, MM = Missing Value Source: NWS Daily Summary

Daily Weather History Graph

Daily Weather History Graph

Search for Another Location

Airport or City:

Astronomy

May. 09, 2019 Rise Set
Actual Time 6:23 AM EDT 8:53 PM EDT
Civil Twilight 5:51 AM EDT 9:26 PM EDT
Nautical Twilight 5:11 AM EDT 10:06 PM EDT
Astronomical Twilight 4:25 AM EDT 10:52 PM EDT
Moon 10:15 AM EDT (5/9) 12:55 AM EDT (5/9)
Length of Visible Light 15h 34m
Length of Day
14h 29m
Waxing Crescent, 24% of the Moon is Illuminated
May 9
Waxing Crescent
May 11
First Quarter
May 18
Full
May 26
Last Quarter
Jun 3
New

Hourly Weather History & Observations

Time (EDT) Temp. Windchill Dew Point Humidity Pressure Visibility Wind Dir Wind Speed Gust Speed Precip Events Conditions
12:15 AM 50.5 °F - 32.0 °F 49% 29.90 in 10.0 mi ESE 18.4 mph 24.2 mph N/A   Scattered Clouds
12:16 AM 50.7 °F - 31.8 °F 48% 29.90 in 10.0 mi ESE 15.0 mph 24.2 mph N/A   Scattered Clouds
12:35 AM 50.9 °F - 30.2 °F 45% 29.90 in 10.0 mi SE 18.4 mph 25.3 mph N/A   Scattered Clouds
12:55 AM 50.9 °F - 29.7 °F 44% 29.89 in 10.0 mi ESE 17.3 mph 26.5 mph N/A   Mostly Cloudy
12:56 AM 50.9 °F - 29.8 °F 44% 29.89 in 10.0 mi ESE 18.4 mph 26.5 mph N/A   Mostly Cloudy
1:15 AM 50.9 °F - 29.7 °F 44% 29.87 in 10.0 mi ESE 17.3 mph 28.8 mph N/A   Overcast
1:16 AM 50.9 °F - 29.7 °F 44% 29.87 in 10.0 mi ESE 17.3 mph 28.8 mph N/A   Overcast
1:35 AM 50.4 °F - 29.5 °F 45% 29.86 in 10.0 mi ESE 12.7 mph 23.0 mph N/A   Scattered Clouds
1:55 AM 50.2 °F - 29.8 °F 46% 29.84 in 10.0 mi ESE 12.7 mph 20.7 mph N/A   Clear
2:15 AM 50.4 °F - 30.7 °F 47% 29.83 in 10.0 mi SE 16.1 mph 24.2 mph N/A   Mostly Cloudy
2:16 AM 50.4 °F - 30.9 °F 47% 29.83 in 10.0 mi SE 18.4 mph 25.3 mph N/A   Mostly Cloudy
2:35 AM 50.9 °F - 31.6 °F 48% 29.82 in 10.0 mi ESE 15.0 mph 25.3 mph N/A   Mostly Cloudy
2:36 AM 50.9 °F - 31.8 °F 48% 29.82 in 10.0 mi ESE 15.0 mph 25.3 mph N/A   Mostly Cloudy
2:55 AM 49.8 °F - 34.9 °F 56% 29.85 in 10.0 mi East 6.9 mph - N/A Rain Light Rain
3:15 AM 48.7 °F - 37.8 °F 66% 29.90 in 10.0 mi NNW 5.8 mph 24.2 mph N/A   Overcast
3:35 AM 46.4 °F 44.3 °F 39.9 °F 78% 29.86 in 7.0 mi NE 4.6 mph - 0.01 in   Overcast
3:36 AM 46.2 °F 44.1 °F 39.9 °F 79% 29.86 in 7.0 mi NNE 4.6 mph - 0.01 in   Overcast
3:55 AM 45.1 °F 42.0 °F 40.1 °F 82% 29.84 in 4.0 mi ENE 5.8 mph - 0.04 in   Overcast
3:56 AM 45.1 °F 42.0 °F 40.1 °F 82% 29.84 in 5.0 mi ENE 5.8 mph - 0.04 in   Overcast
4:15 AM 44.8 °F 42.4 °F 40.5 °F 85% 29.86 in 0.5 mi NNW 4.6 mph - 0.15 in   Unknown
4:35 AM 43.7 °F 40.3 °F 41.0 °F 90% 29.83 in 3.0 mi East 5.8 mph - 0.22 in   Unknown
4:36 AM 43.7 °F 41.1 °F 41.0 °F 90% 29.83 in 3.0 mi ESE 4.6 mph - 0.22 in   Unknown
4:55 AM 43.7 °F 39.1 °F 41.2 °F 91% 29.82 in 0.5 mi East 8.1 mph - 0.33 in   Unknown
4:56 AM 43.7 °F 39.7 °F 41.2 °F 91% 29.82 in 0.5 mi East 6.9 mph - 0.34 in   Unknown
5:15 AM 43.7 °F 39.7 °F 41.7 °F 93% 29.82 in 2.0 mi SE 6.9 mph - 0.06 in   Unknown
5:35 AM 43.7 °F 40.3 °F 41.9 °F 93% 29.80 in 7.0 mi ESE 5.8 mph - 0.09 in   Unknown
5:36 AM 43.7 °F 41.1 °F 41.9 °F 93% 29.80 in 7.0 mi ESE 4.6 mph - 0.09 in   Unknown
5:55 AM 44.2 °F 40.3 °F 42.6 °F 94% 29.79 in 5.0 mi SE 6.9 mph - 0.10 in Rain Light Rain
6:15 AM 44.8 °F 41.6 °F 43.2 °F 94% 29.77 in 7.0 mi East 5.8 mph - 0.01 in Rain Light Rain
6:35 AM 45.0 °F 40.6 °F 43.3 °F 94% 29.75 in 10.0 mi ESE 8.1 mph - 0.01 in Rain Light Rain
6:36 AM 45.0 °F 40.6 °F 43.3 °F 94% 29.75 in 10.0 mi ESE 8.1 mph - 0.01 in Rain Light Rain
6:55 AM 45.0 °F 41.8 °F 43.3 °F 94% 29.75 in 10.0 mi SSE 5.8 mph - 0.02 in Rain Light Rain
7:15 AM 45.0 °F 41.2 °F 43.3 °F 94% 29.74 in 10.0 mi ESE 6.9 mph - N/A Rain Light Rain
7:35 AM 45.1 °F 42.8 °F 43.7 °F 95% 29.72 in 10.0 mi ESE 4.6 mph - N/A   Overcast
7:55 AM 45.5 °F 43.2 °F 43.7 °F 93% 29.73 in 10.0 mi SE 4.6 mph - N/A Rain Light Rain
7:56 AM 45.5 °F 43.2 °F 43.7 °F 93% 29.73 in 10.0 mi SE 4.6 mph - N/A Rain Light Rain
8:15 AM 45.5 °F 44.2 °F 43.7 °F 93% 29.72 in 4.0 mi East 3.5 mph - 0.01 in Rain Light Rain
8:35 AM 45.7 °F 43.4 °F 44.1 °F 94% 29.71 in 2.5 mi ESE 4.6 mph - 0.04 in   Overcast
8:55 AM 45.5 °F 44.2 °F 44.1 °F 95% 29.69 in 1.0 mi NNE 3.5 mph - 0.13 in   Unknown
9:15 AM 45.5 °F 42.5 °F 44.1 °F 95% 29.71 in 0.5 mi ESE 5.8 mph - 0.15 in   Unknown
9:16 AM 45.5 °F 42.5 °F 44.1 °F 95% 29.70 in 0.8 mi East 5.8 mph - 0.15 in   Unknown
9:35 AM 45.5 °F 40.8 °F 44.4 °F 96% 29.68 in 1.5 mi SE 9.2 mph - 0.24 in   Unknown
9:55 AM 46.4 °F 41.1 °F 45.1 °F 95% 29.68 in 10.0 mi SSE 11.5 mph - 0.25 in Rain Light Rain
9:56 AM 46.4 °F 40.7 °F 45.0 °F 95% 29.68 in 10.0 mi SSE 12.7 mph - 0.25 in Rain Light Rain
10:15 AM 47.1 °F - 45.9 °F 95% 29.67 in 10.0 mi SE 5.8 mph - N/A   Overcast
10:16 AM 47.1 °F - 46.0 °F 96% 29.67 in 10.0 mi SE 5.8 mph - N/A   Overcast
10:35 AM 48.2 °F - 46.9 °F 95% 29.66 in 10.0 mi SE 6.9 mph - N/A   Overcast
10:36 AM 48.2 °F - 46.9 °F 95% 29.67 in 10.0 mi SE 6.9 mph - N/A   Overcast
10:55 AM 49.1 °F - 47.7 °F 95% 29.66 in 10.0 mi SE 5.8 mph - N/A   Overcast
10:56 AM 49.1 °F - 47.7 °F 95% 29.66 in 10.0 mi SE 5.8 mph - N/A   Overcast
11:15 AM 49.3 °F - 47.7 °F 94% 29.68 in 10.0 mi ESE 6.9 mph - N/A   Overcast
11:16 AM 49.3 °F - 47.7 °F 94% 29.68 in 10.0 mi ESE 5.8 mph - N/A   Overcast
11:35 AM 50.0 °F - 48.4 °F 94% 29.68 in 7.0 mi SE 5.8 mph - N/A   Overcast
11:36 AM 50.0 °F - 48.4 °F 94% 29.68 in 7.0 mi SE 5.8 mph - N/A   Overcast
11:55 AM 50.4 °F - 48.9 °F 95% 29.68 in 10.0 mi SE 5.8 mph - N/A   Overcast
12:15 PM 51.4 °F - 50.0 °F 95% 29.67 in 7.0 mi SE 4.6 mph - N/A   Overcast
12:35 PM 52.7 °F - 51.3 °F 95% 29.68 in 7.0 mi South 6.9 mph - N/A   Overcast
12:36 PM 52.7 °F - 51.3 °F 95% 29.68 in 7.0 mi South 6.9 mph - N/A   Overcast
12:55 PM 54.5 °F - 52.9 °F 94% 29.67 in 10.0 mi South 5.8 mph - N/A   Overcast
12:56 PM 54.5 °F - 52.7 °F 94% 29.68 in 10.0 mi South 6.9 mph - N/A   Overcast
1:15 PM 55.0 °F - 53.4 °F 94% 29.68 in 7.0 mi South 5.8 mph - N/A   Overcast
1:16 PM 55.2 °F - 53.6 °F 94% 29.68 in 7.0 mi Calm Calm - N/A   Overcast
1:35 PM 56.5 °F - 54.9 °F 94% 29.67 in 7.0 mi South 5.8 mph - N/A   Overcast
1:55 PM 58.8 °F - 57.2 °F 94% 29.67 in 7.0 mi SSW 3.5 mph - N/A   Overcast
2:15 PM 59.9 °F - 58.1 °F 94% 29.68 in 5.0 mi SW 6.9 mph - N/A   Overcast
2:16 PM 59.9 °F - 58.1 °F 94% 29.68 in 5.0 mi SW 5.8 mph - N/A   Overcast
2:35 PM 61.7 °F - 59.5 °F 93% 29.67 in 7.0 mi SSW 9.2 mph - N/A   Overcast
2:36 PM 61.7 °F - 59.5 °F 93% 29.67 in 7.0 mi SSW 6.9 mph - N/A   Overcast
2:55 PM 63.7 °F - 60.6 °F 90% 29.68 in 10.0 mi WSW 10.4 mph - N/A   Overcast
3:15 PM 64.6 °F - 60.6 °F 87% 29.68 in 10.0 mi SW 8.1 mph - N/A   Overcast
3:35 PM 65.3 °F - 60.4 °F 84% 29.68 in 10.0 mi North - - N/A   Overcast
3:36 PM 65.3 °F - 60.3 °F 84% 29.68 in 10.0 mi SW 11.5 mph - N/A   Overcast
3:55 PM 65.5 °F - 60.3 °F 83% 29.68 in 10.0 mi North - - N/A   Overcast
3:56 PM 65.7 °F - 60.3 °F 83% 29.68 in 10.0 mi North - - N/A   Overcast
4:15 PM 67.1 °F - 60.1 °F 78% 29.68 in 10.0 mi WSW 17.3 mph 23.0 mph N/A   Overcast
4:35 PM 65.8 °F - 58.5 °F 77% 29.69 in 10.0 mi WSW 19.6 mph 25.3 mph N/A   Overcast
4:55 PM 65.3 °F - 57.7 °F 76% 29.69 in 10.0 mi WSW 12.7 mph 23.0 mph N/A   Overcast
4:56 PM 65.3 °F - 57.6 °F 76% 29.69 in 10.0 mi WSW 12.7 mph 23.0 mph N/A   Overcast
5:15 PM 64.2 °F - 56.8 °F 77% 29.70 in 10.0 mi WSW 12.7 mph 20.7 mph N/A   Overcast
5:16 PM 64.2 °F - 56.8 °F 77% 29.70 in 10.0 mi WSW 15.0 mph 20.7 mph N/A   Overcast
5:35 PM 63.9 °F - 55.6 °F 74% 29.70 in 10.0 mi SW 12.7 mph 21.9 mph N/A   Overcast
5:55 PM 62.6 °F - 54.9 °F 76% 29.71 in 10.0 mi West 15.0 mph 23.0 mph N/A   Overcast
6:15 PM 61.7 °F - 53.8 °F 75% 29.72 in 10.0 mi West 13.8 mph 23.0 mph N/A   Overcast
6:16 PM 61.7 °F - 53.8 °F 75% 29.72 in 10.0 mi West 15.0 mph 23.0 mph N/A   Overcast
6:35 PM 61.0 °F - 52.5 °F 74% 29.72 in 10.0 mi WSW 11.5 mph 23.0 mph N/A   Mostly Cloudy
6:36 PM 61.0 °F - 52.5 °F 74% 29.72 in 10.0 mi WSW 12.7 mph 23.0 mph N/A   Mostly Cloudy
6:55 PM 59.9 °F - 52.0 °F 75% 29.73 in 10.0 mi West 16.1 mph 21.9 mph N/A   Mostly Cloudy
7:15 PM 58.5 °F - 51.4 °F 77% 29.74 in 10.0 mi WNW 11.5 mph 18.4 mph N/A   Overcast
7:16 PM 58.3 °F - 51.3 °F 77% 29.74 in 10.0 mi WNW 12.7 mph 18.4 mph N/A   Overcast
7:35 PM 56.8 °F - 50.9 °F 80% 29.75 in 10.0 mi West 11.5 mph 16.1 mph N/A   Overcast
7:36 PM 56.8 °F - 50.9 °F 80% 29.75 in 10.0 mi West 12.7 mph 18.4 mph N/A   Overcast
7:55 PM 56.3 °F - 49.5 °F 78% 29.76 in 10.0 mi WNW 8.1 mph - N/A   Overcast
8:15 PM 55.0 °F - 47.7 °F 76% 29.77 in 10.0 mi West 12.7 mph 21.9 mph N/A   Overcast
8:16 PM 55.0 °F - 47.7 °F 76% 29.77 in 10.0 mi West 11.5 mph 18.4 mph N/A   Overcast
8:35 PM 54.5 °F - 47.5 °F 77% 29.77 in 10.0 mi West 13.8 mph 19.6 mph N/A   Overcast
8:36 PM 54.5 °F - 47.5 °F 77% 29.77 in 10.0 mi West 13.8 mph 19.6 mph N/A   Overcast
8:55 PM 53.1 °F - 47.5 °F 81% 29.78 in 10.0 mi West 12.7 mph - N/A   Overcast
8:56 PM 53.1 °F - 47.5 °F 81% 29.78 in 10.0 mi West 12.7 mph - N/A   Overcast
9:15 PM 52.2 °F - 47.1 °F 83% 29.79 in 10.0 mi WNW 13.8 mph 17.3 mph N/A   Overcast
9:35 PM 51.1 °F - 46.8 °F 85% 29.80 in 10.0 mi WNW 10.4 mph 18.4 mph N/A   Overcast
9:36 PM 50.9 °F - 46.8 °F 86% 29.80 in 10.0 mi WNW 10.4 mph 18.4 mph N/A   Overcast
9:55 PM 50.9 °F - 46.6 °F 85% 29.80 in 10.0 mi West 6.9 mph - N/A   Overcast
9:56 PM 50.9 °F - 46.6 °F 85% 29.80 in 10.0 mi West 6.9 mph - N/A   Overcast
10:15 PM 50.0 °F - 46.4 °F 87% 29.81 in 5.0 mi WNW 8.1 mph - N/A   Overcast
10:35 PM 48.7 °F - 45.7 °F 89% 29.82 in 7.0 mi NW 8.1 mph 16.1 mph N/A   Overcast
10:55 PM 48.2 °F - 45.5 °F 90% 29.82 in 7.0 mi WNW 8.1 mph - N/A   Overcast
10:56 PM 48.2 °F - 45.5 °F 90% 29.82 in 7.0 mi NW 5.8 mph - N/A   Overcast
11:15 PM 47.8 °F - 45.3 °F 91% 29.82 in 5.0 mi NW 4.6 mph - N/A   Overcast
11:35 PM 47.3 °F - 45.0 °F 92% 29.81 in 5.0 mi NW 6.9 mph - N/A   Overcast
11:55 PM 46.4 °F 42.4 °F 44.2 °F 92% 29.82 in 7.0 mi NW 8.1 mph - N/A   Overcast